Regional Weather Roundup
Issued by NWS

Home | Current Version | Previous Version | Text Only | Print | Product List | Glossary On
Versions: 1 2 3 4 5 6 7 8 9 10 11 12 13 14 15 16 17 18 19 20 21 22 23 24 25 26 27 28 29 30 31 32 33 34 35 36 37 38 39 40 41 42 43 44 45 46 47 48 49 50
000
ASUS43 KLOT 262310
RWRIL

ILLINOIS REGIONAL WEATHER ROUNDUP
NATIONAL WEATHER SERVICE CHICAGO/ROMEOVILLE IL
500 PM CST MON JAN 26 2015

NOTE: "FAIR" INDICATES FEW OR NO CLOUDS BELOW 12,000 FEET WITH NO
SIGNIFICANT WEATHER AND/OR OBSTRUCTIONS TO VISIBILITY.

* THESE STATIONS ARE NOT UNDER NWS QUALITY CONTROL. THEY ALSO MAY NOT
  REPORT WEATHER SUCH AS PRECIPITATION OR FOG.

ILZ001-002-007-009-015-016-024-270000-
NORTHWEST ILLINOIS

CITY           SKY/WX    TMP DP  RH WIND       PRES   REMARKS
MOLINE         MOCLDY    31  27  85 SW3       29.82S FOG
STERLING*      CLOUDY    27  25  93 S5        29.85R WCI  21
SAVANNA*       MIX PCPN  28  26  94 S3        29.85R
$$

ILZ003-004-008-010-011-017-018-270000-
NORTH CENTRAL ILLINOIS

CITY           SKY/WX    TMP DP  RH WIND       PRES   REMARKS
ROCKFORD       FRZ DRZL  24  22  91 S8        29.88R FOG     WCI  15
FREEPORT*      CLOUDY    24  23  95 S5        29.86R FOG     WCI  18
ROCHELLE*      CLOUDY    24  24  96 SE8       29.86S FOG     WCI  16
DE KALB*       MIX PCPN  23  22  95 SE9       29.85F WCI  13
PERU*          CLOUDY    28  27  94 S10       29.87R FOG     WCI  19
$$

ILZ005-006-012>014-019>023-270000-
NORTHEAST ILLINOIS

CITY           SKY/WX    TMP DP  RH WIND       PRES   REMARKS
CHICAGO-OHARE  LGT SNOW  25  21  85 S6        29.87R FOG     WCI  18
CHICAGO-MIDWAY LGT SNOW  28  21  75 S6        29.88R WCI  22
AURORA         CLOUDY    26  22  84 SE8       29.88R FOG     WCI  18
LANSING*       CLOUDY    27  22  83 SE5       29.89S WCI  21
JOLIET*        DRIZZLE   25  23  91 CALM      29.90R
WAUKEGAN       LGT SNOW  25  22  88 S5        29.87R FOG     WCI  19
DUPAGE AIRPORT CLOUDY    25  23  92 S7        29.87R FOG     WCI  17
KANKAKEE*      MIX PCPN  27  24  87 S6        29.90R WCI  20
WHEELING       CLOUDY    26  21  81 S5        29.89S WCI  20
MORRIS*        MIX PCPN  27  26  97 SE7       29.88R WCI  19
ROMEOVILLE*    MIX PCPN  26  24  93 S6        29.90R WCI  19
NORTHERLY ISL    N/A     27  21  78 S5          N/A  WCI  22
$$

LMZ740>746-270000-
SOUTHERN LAKE MICHIGAN

STATION/POSITION SKY/WX   TEMP    WIND        PRES    VSBY  WAVE
                          AIR SEA DIR/SP/G                  HT/PER
                          (F)     (DEG/KT/KT) (MB)    (MI)  (FT/S)
WAUKEGAN HARBOR            26     140/  8/ 11   N/A
HARRISON CRIB              26     160/  9/ 11   N/A
BURNHAM HARBOR             27     180/  5/  8   N/A
CALUMET HARBOR             27     170/  6/  8   N/A
MICHIGAN CITY              24     150/  8/ 10   N/A
$$

ILZ025>027-034>036-040-047-049-050-058-095>099-270000-
WEST-CENTRAL ILLINOIS

CITY           SKY/WX    TMP DP  RH WIND       PRES   REMARKS
QUINCY         CLEAR     39  33  79 S5        29.85R
GALESBURG*     CLOUDY    32  30  93 S6        29.85R WCI  26
MACOMB*        CLOUDY    34  32  93 SW5       29.87S WCI  30
JACKSONVILLE*  CLOUDY    35  31  85 S7        29.88R WCI  29
PITTSFIELD*    CLEAR     36  32  87 SE6       29.88R WCI  31
$$

ILZ028>032-037-038-041>044-048-051>054-059>061-270000-
CENTRAL ILLINOIS

CITY           SKY/WX    TMP DP  RH WIND       PRES   REMARKS
PONTIAC        CLOUDY    29  27  94 S9        29.88S FOG     WCI  20
BLOOMINGTON    FOG       28  27  93 S13       29.87S VSB 1   WCI  18
DECATUR        CLOUDY    29  28  96 S8        29.90R FOG     WCI  21
PEORIA         CLOUDY    30  28  92 S7        29.87R FOG     WCI  23
LACON*         CLOUDY    27  25  92 S5        29.87R FOG     WCI  22
LINCOLN*       DRIZZLE   32  30  92 S8        29.89S WCI  25
SPRINGFIELD    CLOUDY    32  28  85 S9        29.88S WCI  24
TAYLORVILLE    CLOUDY    30  28  93 S8        29.90S FOG     WCI  23
$$

ILZ033-039-045-046-055>057-062-063-270000-
EAST-CENTRAL ILLINOIS

CITY           SKY/WX    TMP DP  RH WIND       PRES   REMARKS
CHAMPAIGN      CLOUDY    27  24  89 S10       29.90S FOG     WCI  17
DANVILLE*      LGT SNOW  27  23  85 SW6       29.88R WCI  21
RANTOUL*       CLOUDY    29  26  88 S8        29.90R WCI  21
MATTOON        CLOUDY    27  22  81 S7        29.92R WCI  19
PARIS*         CLOUDY    28  25  89 NE3       29.94R
$$

ILZ079-100>102-270000-
SOUTHWEST ILLINOIS

CITY           SKY/WX    TMP DP  RH WIND       PRES   REMARKS
ALTON          CLOUDY    36  28  75 SE6       29.91S WCI  31
BELLEVILLE     CLOUDY    36  31  81 SE6       29.91R WCI  31
CAHOKIA*       MOCLDY    38  30  73 SE7       29.90F WCI  33
SPARTA*        CLOUDY    36  29  75 S5        29.93S WCI  32
$$

ILZ064>066-069>071-074>076-080>082-084>086-088>090-092>094-270000-
SOUTH-CENTRAL ILLINOIS

CITY           SKY/WX    TMP DP  RH WIND       PRES   REMARKS
CARBONDALE     CLOUDY    35  27  72 S5        29.94R WCI  31
CAIRO*         PTCLDY    40  32  73 S6        29.92F
EFFINGHAM*     CLOUDY    30  24  77 S6        29.96R WCI  24
MARION         CLOUDY    36  28  75 S9        29.95R WCI  29
MT. VERNON     CLOUDY    32  25  74 CALM      29.95R
CENTRALIA*     CLOUDY    32  28  83 S3        29.94R
SALEM*         CLOUDY    33  29  84 S3        29.94R
METROPOLIS*    CLOUDY    37  31  80 W3        29.94R
$$

ILZ067-068-072-073-078-083-087-091-270000-
SOUTHEAST ILLINOIS

CITY           SKY/WX    TMP DP  RH WIND       PRES   REMARKS
LAWRENCEVILLE  LGT SNOW  28  24  85 SW3       29.96R FOG
FLORA*         CLOUDY    30  28  91 S5        29.96R WCI  25
FAIRFIELD*     CLOUDY    31  28  88 CALM      29.95R
HARRISBURG*    CLOUDY    32  29  86 S5        29.96R WCI  28
ROBINSON*      LGT SNOW  28  26  94 SW3       29.96R
CARMI*         CLOUDY    32  30  93 CALM      29.95R
$$

ABBREVIATIONS USED IN REMARKS
   TC - TEMPERATURE IN CELSIUS
  WCI - WIND CHILL INDEX
   HX - HEAT INDEX
  VSB - VISIBILITY
$$




USA.gov is the U.S. government's official web portal to all federal, state and local government web resources and services.